TimeCST,TemperatureF,Dew PointF,Humidity,Sea Level PressureIn,VisibilityMPH,Wind Direction,Wind SpeedMPH,Gust SpeedMPH,PrecipitationIn,Events,Conditions,WindDirDegrees,DateUTC
12:15 AM,27.0,16.3,64,30.12,10.0,Calm,Calm,-,N/A,,Clear,0,2012-12-04 06:15:00
12:35 AM,27.3,16.9,65,30.11,10.0,NNW,4.6,-,N/A,,Clear,330,2012-12-04 06:35:00
12:55 AM,22.8,16.2,76,30.12,10.0,Calm,Calm,-,N/A,,Clear,0,2012-12-04 06:55:00
1:15 AM,24.6,16.3,71,30.12,10.0,NW,3.5,-,N/A,,Clear,320,2012-12-04 07:15:00
1:35 AM,22.6,15.8,75,30.12,10.0,NW,4.6,-,N/A,,Clear,320,2012-12-04 07:35:00
1:55 AM,26.1,16.7,68,30.13,10.0,NNW,3.5,-,N/A,,Clear,330,2012-12-04 07:55:00
2:15 AM,32.5,18.5,56,30.13,10.0,NW,5.8,-,N/A,,Clear,320,2012-12-04 08:15:00
2:55 AM,31.5,17.6,57,30.15,10.0,Calm,Calm,-,N/A,,Clear,0,2012-12-04 08:55:00
3:15 AM,32.9,17.8,54,30.15,10.0,Calm,Calm,-,N/A,,Clear,0,2012-12-04 09:15:00
3:35 AM,23.2,14.7,70,30.15,10.0,Calm,Calm,-,N/A,,Clear,0,2012-12-04 09:35:00
3:55 AM,21.7,15.3,76,30.15,10.0,Calm,Calm,-,N/A,,Clear,0,2012-12-04 09:55:00
4:15 AM,22.8,16.0,75,30.15,10.0,Calm,Calm,-,N/A,,Clear,0,2012-12-04 10:15:00
4:35 AM,22.1,16.0,77,30.15,10.0,Calm,Calm,-,N/A,,Clear,0,2012-12-04 10:35:00
4:55 AM,23.5,16.9,76,30.15,10.0,NW,6.9,-,N/A,,Clear,320,2012-12-04 10:55:00
5:15 AM,20.3,14.9,80,30.17,10.0,NW,3.5,-,N/A,,Clear,320,2012-12-04 11:15:00
5:35 AM,23.9,16.7,74,30.17,10.0,NW,5.8,-,N/A,,Clear,320,2012-12-04 11:35:00
5:55 AM,22.8,16.5,77,30.18,10.0,NW,6.9,-,N/A,,Clear,310,2012-12-04 11:55:00
6:15 AM,20.3,14.7,79,30.19,10.0,WNW,5.8,-,N/A,,Clear,300,2012-12-04 12:15:00
6:35 AM,19.4,14.7,82,30.19,10.0,NNW,4.6,-,N/A,,Clear,330,2012-12-04 12:35:00
6:55 AM,19.4,14.2,80,30.20,10.0,Calm,Calm,-,N/A,,Clear,0,2012-12-04 12:55:00
7:15 AM,21.9,15.8,77,30.21,10.0,Calm,Calm,-,N/A,,Clear,0,2012-12-04 13:15:00
7:35 AM,21.4,15.4,78,30.21,10.0,Calm,Calm,-,N/A,,Clear,0,2012-12-04 13:35:00
7:55 AM,20.7,14.5,77,30.22,10.0,Calm,Calm,-,N/A,,Clear,0,2012-12-04 13:55:00
8:15 AM,24.3,17.6,76,30.23,10.0,NNW,8.1,-,N/A,,Clear,330,2012-12-04 14:15:00
8:35 AM,28.8,21.2,73,30.24,10.0,NW,4.6,-,N/A,,Clear,320,2012-12-04 14:35:00
8:55 AM,31.1,21.2,67,30.25,10.0,Calm,Calm,-,N/A,,Clear,0,2012-12-04 14:55:00
9:15 AM,33.8,23.4,66,30.26,10.0,NW,5.8,-,N/A,,Clear,310,2012-12-04 15:15:00
9:35 AM,36.5,22.8,58,30.26,10.0,NW,5.8,-,N/A,,Clear,320,2012-12-04 15:35:00
9:55 AM,39.4,23.0,52,30.26,10.0,NW,5.8,-,N/A,,Clear,320,2012-12-04 15:55:00
10:15 AM,43.7,23.5,45,30.27,10.0,NNW,5.8,-,N/A,,Clear,330,2012-12-04 16:15:00
10:35 AM,47.5,21.7,36,30.27,10.0,NW,6.9,-,N/A,,Clear,320,2012-12-04 16:35:00
10:55 AM,49.6,22.1,34,30.27,10.0,NW,4.6,-,N/A,,Clear,310,2012-12-04 16:55:00
11:15 AM,53.1,21.6,29,30.26,10.0,NNW,6.9,-,N/A,,Clear,340,2012-12-04 17:15:00
11:35 AM,55.2,20.8,26,30.25,10.0,NW,6.9,-,N/A,,Clear,320,2012-12-04 17:35:00
11:55 AM,56.5,19.9,24,30.25,10.0,NW,6.9,-,N/A,,Clear,320,2012-12-04 17:55:00
12:15 PM,57.9,20.1,23,30.25,10.0,NNW,6.9,-,N/A,,Clear,340,2012-12-04 18:15:00
12:35 PM,59.0,18.9,21,30.24,10.0,NW,10.4,-,N/A,,Clear,320,2012-12-04 18:35:00
12:55 PM,59.5,18.9,21,30.24,10.0,NW,10.4,-,N/A,,Clear,320,2012-12-04 18:55:00
1:15 PM,59.7,19.2,21,30.23,10.0,NNW,11.5,-,N/A,,Clear,330,2012-12-04 19:15:00
1:35 PM,59.9,19.8,21,30.23,10.0,NNW,6.9,-,N/A,,Clear,330,2012-12-04 19:35:00
1:55 PM,60.1,19.4,21,30.22,10.0,North,5.8,-,N/A,,Clear,10,2012-12-04 19:55:00
2:15 PM,59.5,18.3,20,30.21,10.0,NNW,9.2,-,N/A,,Clear,330,2012-12-04 20:15:00
2:35 PM,59.5,18.1,20,30.21,10.0,NW,9.2,-,N/A,,Clear,320,2012-12-04 20:35:00
2:55 PM,59.9,18.0,20,30.20,10.0,NW,9.2,-,N/A,,Clear,320,2012-12-04 20:55:00
3:15 PM,59.7,17.8,20,30.20,10.0,NW,6.9,-,N/A,,Clear,320,2012-12-04 21:15:00
3:35 PM,59.4,17.6,20,30.21,10.0,NNW,5.8,-,N/A,,Clear,340,2012-12-04 21:35:00
3:55 PM,57.9,17.6,21,30.22,10.0,NNW,4.6,-,N/A,,Clear,340,2012-12-04 21:55:00
4:15 PM,56.5,17.6,22,30.22,10.0,North,3.5,-,N/A,,Clear,360,2012-12-04 22:15:00
4:35 PM,52.7,18.3,26,30.22,10.0,NE,4.6,-,N/A,,Clear,40,2012-12-04 22:35:00
4:55 PM,49.6,18.5,29,30.22,10.0,ENE,6.9,-,N/A,,Clear,60,2012-12-04 22:55:00
5:15 PM,47.5,18.5,32,30.22,10.0,ENE,8.1,-,N/A,,Clear,60,2012-12-04 23:15:00
5:35 PM,44.2,18.5,36,30.22,10.0,Calm,Calm,-,N/A,,Clear,0,2012-12-04 23:35:00
5:55 PM,42.4,18.1,38,30.23,10.0,Calm,Calm,-,N/A,,Clear,0,2012-12-04 23:55:00
6:15 PM,41.2,18.3,40,30.23,10.0,ESE,3.5,-,N/A,,Clear,110,2012-12-05 00:15:00
6:35 PM,42.3,18.5,39,30.23,10.0,Calm,Calm,-,N/A,,Clear,0,2012-12-05 00:35:00
6:55 PM,35.6,17.6,48,30.23,10.0,Calm,Calm,-,N/A,,Clear,0,2012-12-05 00:55:00
7:15 PM,40.1,18.5,42,30.23,10.0,Calm,Calm,-,N/A,,Clear,0,2012-12-05 01:15:00
7:35 PM,33.3,18.1,54,30.24,10.0,Calm,Calm,-,N/A,,Clear,0,2012-12-05 01:35:00
7:55 PM,37.4,18.7,47,30.25,10.0,Calm,Calm,-,N/A,,Clear,0,2012-12-05 01:55:00
8:15 PM,39.0,19.4,45,30.24,10.0,Calm,Calm,-,N/A,,Clear,0,2012-12-05 02:15:00
8:35 PM,36.1,19.0,50,30.24,10.0,Calm,Calm,-,N/A,,Clear,0,2012-12-05 02:35:00
8:55 PM,35.6,18.9,51,30.25,10.0,Calm,Calm,-,N/A,,Clear,0,2012-12-05 02:55:00
9:15 PM,32.9,18.7,56,30.24,10.0,Calm,Calm,-,N/A,,Clear,0,2012-12-05 03:15:00
9:35 PM,35.2,18.7,51,30.24,10.0,Calm,Calm,-,N/A,,Clear,0,2012-12-05 03:35:00
9:55 PM,32.0,18.3,57,30.24,10.0,Calm,Calm,-,N/A,,Clear,0,2012-12-05 03:55:00
10:15 PM,31.5,18.9,60,30.25,10.0,Calm,Calm,-,N/A,,Clear,0,2012-12-05 04:15:00
10:35 PM,32.7,18.5,56,30.25,10.0,Calm,Calm,-,N/A,,Clear,0,2012-12-05 04:35:00
10:55 PM,29.3,19.4,67,30.24,10.0,Calm,Calm,-,N/A,,Clear,0,2012-12-05 04:55:00
11:15 PM,29.7,18.9,64,30.24,10.0,Calm,Calm,-,N/A,,Clear,0,2012-12-05 05:15:00
11:35 PM,28.2,18.5,67,30.24,10.0,Calm,Calm,-,N/A,,Clear,0,2012-12-05 05:35:00
11:55 PM,30.4,18.7,62,30.24,10.0,Calm,Calm,-,N/A,,Clear,0,2012-12-05 05:55:00